[[{"header":{"parameterUnit":"m.s-1","parameterCategory":1,"la1":30.2991,"la2":30.254,"lo1":-89.0895,"lo2":-89.0444,"dy":0.0017,"dx":0.0017,"nx":28,"ny":28,"refTime":"2024-10-10T21:00:00:Z","depth":0,"parameterNumber":2,"parameterNumberName":"U-component_of_WINDS"},"data":[0,0,0,0,0,0,0,0,0,0,0,0,0,0,0,0,0,0,0,0,0,0,0,0,0,0,0,0,0,0,0,0,0,0,0,0,0,0,0,0,0,0,0,0,0,0,0,0,0,0,0,0,0,0,0,0,0,0,-4.0105,-4.0107,0,-4.0284,-4.0286,-4.0288,-4.0227,-4.0223,-4.0219,-4.0215,-4.0399,-4.0407,-4.0416,0,0,0,0,0,0,0,0,0,0,0,0,0,-3.971,-3.9717,-4.0104,-4.0107,-4.0109,-4.0283,-4.0286,-4.0288,-4.0228,-4.0223,-4.0218,-4.0214,-4.0396,-4.0406,-4.0417,0,0,0,0,0,0,0,0,0,0,0,0,0,-3.9884,-3.972,-4.0104,-4.01,-4.0101,-4.0283,-4.0286,-4.0289,-4.0229,-4.0223,-4.0217,-4.0211,-4.0393,-4.0405,-4.0418,-4.0615,0,0,-4.0457,-4.0463,0,0,0,0,0,0,0,0,-3.9875,-3.9899,-4.0098,-4.01,-4.0102,-4.0227,-4.0214,-4.0398,-4.023,-4.018,-4.0215,-4.0208,-4.0347,-4.0363,-4.0409,-4.0624,-4.0632,-4.0458,-4.0466,-4.0472,-4.0475,0,0,0,0,0,0,0,-3.9863,-3.9891,-4.0175,-4.0101,-4.0104,-4.0089,-4.0107,-4.0249,-4.0294,-4.0184,-4.018,-4.0202,-4.0347,-4.0397,-4.0413,-4.0634,-4.0458,-4.0469,-4.0477,-4.0482,-4.1018,-4.1025,0,0,0,0,0,0,-3.9849,-3.9881,-4.017,-4.0181,-3.9972,-4.0101,-4.0121,-4.0193,-4.0293,-4.0302,-4.0207,-4.0199,-4.0378,-4.0398,-4.042,-4.0656,-4.0472,-4.0484,-4.0491,-4.1012,-4.102,-4.1027,0,0,0,0,0,0,-3.9841,-3.9876,-4.0162,-4.003,-4.0065,-4.0114,-4.0195,-4.0199,-4.025,-4.031,-4.0318,-4.025,-4.0374,-4.0401,-4.0567,-4.0661,-4.0489,-4.0501,-4.1004,-4.1014,-4.1023,-4.113,0,0,0,0,0,0,-3.983,-3.9873,-3.9948,-4.0032,-4.0073,-4.0307,-4.0201,-4.0207,-4.0272,-4.0263,-4.0353,-4.0362,-4.0372,-4.0548,-4.0579,-4.0676,-4.0511,-4.0996,-4.1009,-4.102,-4.1118,-4.1142,-4.1163,0,0,0,0,0,-3.9816,-3.9972,-3.9952,-3.9988,-4.0168,-4.0312,-4.0336,-4.0344,-4.028,-4.0356,-4.0394,-4.0359,-4.0646,-4.0565,-4.06,-4.0702,-4.099,-4.1005,-4.1019,-4.1108,-4.1138,-4.1162,0,0,0,0,0,0,-3.9898,-3.9982,-3.9962,-4.0149,-4.0224,-4.0302,-4.0398,-4.0375,-4.0469,-4.0457,-4.0463,-4.0484,-4.0654,-4.0695,-4.0603,-4.0897,-4.0808,-4.0831,-4.0864,-4.0893,-4.0914,-4.09,-4.0522,0,0,0,0,0,-3.9937,-4.0048,-4.0116,-4.0274,-4.0313,-4.0349,-4.0413,-4.0413,-4.049,-4.0522,-4.0572,-4.0649,-4.0756,-4.0827,-4.0929,-4.1125,-4.1143,-4.1212,-4.1234,-4.1252,-4.1271,-4.1376,-4.1407,-4.1075,-4.1075,-4.1075,0,0,-4.0021,-4.0081,-4.015,-4.0292,-4.035,-4.0464,-4.0376,-4.0501,-4.0585,-4.0541,-4.0699,-4.0739,-4.0825,-4.1006,-4.1088,-4.1045,-4.1367,-4.1271,-4.1285,-4.1294,-4.1394,-4.1426,-4.1454,-4.1085,-4.1083,-4.1082,0,0,-4.023,-4.0287,-4.0425,-4.0485,-4.0573,-4.0596,-4.063,-4.0711,-4.0736,-4.0895,-4.0864,-4.0965,-4.115,-4.1213,-4.1269,-4.1502,-4.1473,-4.1536,-4.1651,-4.1754,-4.178,-4.1803,-4.1885,-4.1915,-4.1554,-4.1555,-4.1555,0,-4.0322,-4.0492,-4.0498,-4.0625,-4.0689,-4.0654,-4.0793,-4.0851,-4.0969,-4.1013,-4.0964,-4.1195,-4.1251,-4.1445,-4.1502,-4.155,-4.1587,-4.1524,-4.1776,-4.1799,-4.1821,-4.1899,-4.193,-4.1562,-4.1561,-4.156,-4.156,0,-4.06,-4.0719,-4.0819,-4.0933,-4.1008,-4.1141,-4.1167,-4.1243,-4.1237,-4.1265,-4.1427,-4.1493,-4.1608,-4.1654,-4.165,-4.1849,-4.1819,-4.1773,-4.1683,-4.1859,-4.1933,-4.1963,-4.1572,-4.1569,-4.1567,-4.1565,0,0,-4.0864,-4.0981,-4.1017,-4.1068,-4.1164,-4.1256,-4.1387,-4.1499,-4.1562,-4.1645,-4.1755,-4.1913,-4.187,-4.1934,-4.1937,-4.2027,-4.2206,-4.197,-4.1972,-4.201,-4.2428,-4.246,-4.2495,-4.2188,-4.2194,-4.2198,-4.242,0,-4.108,-4.131,-4.1319,-4.1529,-4.1638,-4.1607,-4.1721,-4.1792,-4.1822,-4.1919,-4.1953,-4.2064,-4.2001,-4.2039,-4.2127,-4.2166,-4.229,-4.215,-4.2289,-4.2294,-4.2266,-4.2534,-4.2569,-4.2774,-4.2449,-4.2454,-4.2457,0,-4.1362,-4.1453,-4.1673,-4.1752,-4.1799,-4.1901,-4.2004,-4.2097,-4.2177,-4.2193,-4.2265,-4.2254,-4.2388,-4.2295,-4.2479,-4.2384,-4.2442,-4.247,-4.2478,-4.249,-4.2385,-4.2551,-4.284,-4.2871,-4.2503,-4.2499,-4.2496,0,-4.1531,-4.1709,-4.1863,-4.1908,-4.2005,-4.2077,-4.2121,-4.2195,-4.2262,-4.2352,-4.2395,-4.2501,-4.2558,-4.264,-4.2657,-4.2589,-4.2842,-4.2751,-4.2858,-4.2857,-4.2911,-4.2907,-4.3212,-4.2951,-4.2951,-4.295,-4.295,0,-4.177,-4.1905,-4.194,-4.2034,-4.2185,-4.2195,-4.2344,-4.2383,-4.2449,-4.2551,-4.2532,-4.2627,-4.2646,-4.2746,-4.2761,-4.2911,-4.2938,-4.2953,-4.2955,-4.2954,-4.2952,-4.2991,-4.2976,-4.2959,-4.2957,-4.2955,-4.2954,0,-4.1983,-4.2012,-4.2177,-4.2256,-4.2279,-4.2386,-4.2453,-4.2544,-4.2572,-4.2701,-4.2732,-4.2776,-4.2893,-4.2919,-4.3058,-4.3068,-4.3245,-4.3234,-4.3218,-4.3216,-4.3321,-4.331,-4.366,-4.3706,-4.3417,-4.342,-4.3422,0,-4.2132,-4.2236,-4.2325,-4.2391,-4.2438,-4.2546,-4.2613,-4.2628,-4.2699,-4.2798,-4.2877,-4.2991,-4.3083,-4.3271,-4.3316,-4.3422,-4.3412,-4.3528,-4.3428,-4.3423,-4.3412,-4.3405,-4.3415,-4.3546,-4.3549,-4.3552,-4.3554,0,-4.2394,-4.2403,-4.2501,-4.2605,-4.2686,-4.2768,-4.2847,-4.2902,-4.2927,-4.3009,-4.3127,-4.3199,-4.334,-4.3454,-4.356,-4.3605,-4.3584,-4.3585,-4.3615,-4.3614,-4.3599,-4.3607,-4.3268,-4.3576,-4.3574,-4.3572,-4.3571,-4.357,-4.2579,-4.2669,-4.2745,-4.2855,-4.2916,-4.2989,-4.3078,-4.3117,-4.3217,-4.3332,-4.3335,-4.3464,-4.3542,-4.3682,-4.3734,-4.3835,-4.38,-4.3844,-4.3854,-4.3865,-4.3873,-4.3585,-4.3855,-4.3855,-4.3854,-4.3853,-4.3853,0,-4.2838,-4.2886,-4.2987,-4.3097,-4.3183,-4.3156,-4.3241,-4.3315,-4.3429,-4.3503,-4.3594,-4.373,-4.384,-4.3894,-4.4003,-4.4073,-4.4066,-4.4101,-4.4095,-4.4106,-4.39,-4.3862,-4.4105,-4.4105,-4.4105,-4.4105,-4.4105,-4.4105,-4.2983,-4.3133,-4.3152,-4.3331,-4.3378,-4.3504,-4.3555,-4.3623,-4.3682,-4.3834,-4.3926,-4.396,-4.4026,-4.4139,-4.4239,-4.4252,-4.4292,-4.4332,-4.434,-4.4146,-4.412,-4.4096,-4.406,-4.4341,-4.4341,-4.4537,-4.4539,-4.4541]},{"header":{"parameterUnit":"m.s-1","parameterCategory":1,"la1":30.2991,"la2":30.254,"lo1":-89.0895,"lo2":-89.0444,"dy":0.0017,"dx":0.0017,"nx":28,"ny":28,"refTime":"2024-10-10T21:00:00:Z","depth":0,"parameterNumber":3,"parameterNumberName":"V-component_of_WINDS"},"data":[0,0,0,0,0,0,0,0,0,0,0,0,0,0,0,0,0,0,0,0,0,0,0,0,0,0,0,0,0,0,0,0,0,0,0,0,0,0,0,0,0,0,0,0,0,0,0,0,0,0,0,0,0,0,0,0,0,0,0.1446,0.1446,0,0.1463,0.1463,0.1463,0.146,0.1459,0.1459,0.1459,0.1474,0.1475,0.1475,0,0,0,0,0,0,0,0,0,0,0,0,0,0.1409,0.141,0.1446,0.1446,0.1446,0.1463,0.1463,0.1463,0.146,0.1459,0.1459,0.1459,0.1474,0.1475,0.1475,0,0,0,0,0,0,0,0,0,0,0,0,0,0.1425,0.141,0.1446,0.1447,0.1447,0.1463,0.1463,0.1463,0.146,0.1459,0.1459,0.1459,0.1473,0.1474,0.1475,0.1491,0,0,0.1479,0.1479,0,0,0,0,0,0,0,0,0.1424,0.1427,0.1446,0.1447,0.1447,0.1459,0.1456,0.1472,0.146,0.1455,0.1459,0.1458,0.1469,0.147,0.1475,0.1492,0.1492,0.1479,0.1479,0.148,0.148,0,0,0,0,0,0,0,0.1423,0.1426,0.1453,0.1447,0.1447,0.1446,0.1447,0.1459,0.1464,0.1455,0.1455,0.1457,0.1469,0.1474,0.1475,0.1492,0.1479,0.148,0.148,0.1481,0.1523,0.1523,0,0,0,0,0,0,0.1422,0.1425,0.1452,0.1453,0.1434,0.1447,0.1449,0.1455,0.1464,0.1465,0.1458,0.1457,0.1472,0.1474,0.1475,0.1494,0.148,0.1481,0.1481,0.1522,0.1523,0.1523,0,0,0,0,0,0,0.1421,0.1425,0.1451,0.1439,0.1442,0.1448,0.1455,0.1456,0.146,0.1466,0.1467,0.1461,0.1472,0.1474,0.1487,0.1494,0.1481,0.1482,0.1521,0.1522,0.1523,0.153,0,0,0,0,0,0,0.142,0.1424,0.1431,0.1439,0.1443,0.1463,0.1456,0.1457,0.1462,0.1462,0.1469,0.147,0.1472,0.1486,0.1488,0.1495,0.1483,0.1521,0.1522,0.1523,0.1529,0.1531,0.1533,0,0,0,0,0,0.1419,0.1432,0.1431,0.1434,0.1451,0.1464,0.1466,0.1468,0.1463,0.1469,0.1473,0.147,0.1493,0.1487,0.149,0.1497,0.152,0.1522,0.1523,0.1529,0.1531,0.1533,0,0,0,0,0,0,0.1423,0.1433,0.1432,0.1448,0.1455,0.1463,0.1471,0.147,0.1478,0.1477,0.1478,0.148,0.1493,0.1497,0.149,0.1513,0.1506,0.1508,0.151,0.1512,0.1513,0.1512,0.1484,0,0,0,0,0,0.1426,0.1436,0.1444,0.1457,0.1461,0.1465,0.1471,0.1472,0.1479,0.1482,0.1486,0.1493,0.1501,0.1507,0.1515,0.153,0.1531,0.1537,0.1538,0.154,0.1541,0.1549,0.1551,0.1527,0.1527,0.1527,0,0,0.1431,0.1438,0.1444,0.1458,0.1463,0.1473,0.1468,0.1478,0.1485,0.1483,0.1496,0.1499,0.1507,0.1521,0.1527,0.1524,0.1548,0.1541,0.1542,0.1543,0.155,0.1552,0.1554,0.1528,0.1528,0.1527,0,0,0.1446,0.1453,0.1464,0.147,0.1479,0.1482,0.1485,0.1494,0.1496,0.1509,0.1508,0.1516,0.1531,0.1536,0.1541,0.1558,0.1556,0.1561,0.1569,0.1577,0.1579,0.158,0.1586,0.1588,0.1562,0.1562,0.1562,0,0.1452,0.1467,0.147,0.1481,0.1487,0.1486,0.1498,0.1503,0.1514,0.1518,0.1514,0.1533,0.1538,0.1553,0.1558,0.1562,0.1564,0.156,0.1578,0.158,0.1581,0.1587,0.1589,0.1563,0.1563,0.1563,0.1563,0,0.1473,0.1484,0.1492,0.1504,0.151,0.1521,0.1525,0.1532,0.1533,0.1536,0.1549,0.1555,0.1564,0.1568,0.1568,0.1583,0.1581,0.1578,0.1571,0.1584,0.1589,0.1591,0.1564,0.1563,0.1563,0.1563,0,0,0.149,0.1504,0.1507,0.1512,0.1522,0.153,0.1541,0.1551,0.1556,0.1564,0.1572,0.1585,0.1583,0.1588,0.1589,0.1596,0.1609,0.1592,0.1592,0.1594,0.1625,0.1626,0.1628,0.1608,0.1608,0.1608,0.1624,0,0.1505,0.1525,0.1529,0.1546,0.1555,0.1555,0.1565,0.1572,0.1575,0.1583,0.1587,0.1596,0.1592,0.1595,0.1602,0.1606,0.1615,0.1605,0.1615,0.1615,0.1612,0.1631,0.1633,0.1647,0.1626,0.1626,0.1626,0,0.1526,0.1535,0.1553,0.1562,0.1566,0.1575,0.1584,0.1592,0.16,0.1602,0.1608,0.1609,0.1619,0.1613,0.1627,0.162,0.1625,0.1627,0.1628,0.1628,0.1621,0.1631,0.1652,0.1653,0.163,0.1629,0.1629,0,0.1535,0.1552,0.1565,0.157,0.1581,0.1587,0.1591,0.1599,0.1605,0.1613,0.1616,0.1625,0.163,0.1637,0.1639,0.1635,0.1653,0.1647,0.1654,0.1654,0.1657,0.1657,0.1678,0.1662,0.1662,0.1662,0.1662,0,0.1552,0.1563,0.157,0.1578,0.159,0.1594,0.1605,0.161,0.1616,0.1625,0.1625,0.1633,0.1636,0.1644,0.1646,0.1657,0.166,0.1661,0.1661,0.166,0.166,0.1663,0.1661,0.1662,0.1662,0.1662,0.1662,0,0.1564,0.1569,0.1583,0.1593,0.1596,0.1604,0.1612,0.1619,0.1623,0.1634,0.1636,0.1642,0.1651,0.1655,0.1666,0.1668,0.168,0.168,0.1678,0.1678,0.1684,0.1683,0.1707,0.171,0.1693,0.1693,0.1693,0,0.1573,0.1582,0.1593,0.1599,0.1604,0.1614,0.162,0.1624,0.163,0.164,0.1646,0.1655,0.1663,0.1678,0.1683,0.1692,0.1691,0.1699,0.1692,0.1691,0.169,0.1689,0.169,0.17,0.17,0.17,0.17,0,0.159,0.1592,0.1601,0.1612,0.1619,0.1627,0.1635,0.164,0.1645,0.1652,0.1662,0.1668,0.168,0.1689,0.1698,0.1702,0.1702,0.1702,0.1704,0.1703,0.1701,0.1701,0.168,0.1701,0.1701,0.1701,0.1701,0.1701,0.16,0.1608,0.1617,0.1627,0.1634,0.1641,0.1648,0.1654,0.1662,0.1673,0.1675,0.1685,0.1693,0.1705,0.1709,0.1717,0.1715,0.1718,0.1719,0.1719,0.1719,0.1701,0.1719,0.1719,0.1719,0.1719,0.1719,0,0.1616,0.1622,0.1631,0.1643,0.1651,0.1651,0.1659,0.1666,0.1675,0.1683,0.1691,0.1702,0.1711,0.1717,0.1726,0.1731,0.1731,0.1733,0.1733,0.1733,0.1721,0.1718,0.1733,0.1733,0.1733,0.1733,0.1733,0.1733,0.1625,0.1637,0.1641,0.1657,0.1662,0.1674,0.1678,0.1685,0.1691,0.1704,0.1712,0.1716,0.1722,0.1732,0.174,0.1742,0.1744,0.1747,0.1748,0.1736,0.1734,0.1733,0.173,0.1748,0.1748,0.176,0.176,0.176]}]]